Coffeyville, KS

12:08 AM CDT on July 22, 2017 (GMT -0500)
Coffeyville Municipal

Weather History for KCFV - April, 2013

Change the Weather History Date:

Friday, April 19, 2013

  Actual Average Record
Temperature  
Mean Temperature 48 °F -  
Max Temperature 63 °F 68 °F 80 °F (2002)
Min Temperature 33 °F 46 °F 33 °F (2013)
Degree Days  
Heating Degree Days 18    
Moisture  
Dew Point 28 °F    
Average Humidity 53    
Maximum Humidity 75    
Minimum Humidity 29    
Precipitation  
Precipitation 0.00 in - - ()
Sea Level Pressure  
Sea Level Pressure 30.08 in    
Wind  
Wind Speed 11 mph (WNW)    
Max Wind Speed 17 mph    
Max Gust Speed 24 mph    
Visibility 10 miles    
Events      
Averages and records for this station are not official NWS values.
T = Trace of Precipitation, MM = Missing Value Source: NWS Daily Summary

Daily Weather History Graph

Daily Weather History Graph

Search for Another Location

Airport or City:

Trip Planner

Search our weather history database for the weather conditions in past years. The results will help you decide how hot, cold, wet, or windy it might be!

Date:

Astronomy

Apr. 19, 2013 Rise Set
Actual Time 6:42 AM CDT 8:01 PM CDT
Civil Twilight 6:15 AM CDT 8:28 PM CDT
Nautical Twilight 5:42 AM CDT 9:00 PM CDT
Astronomical Twilight 5:08 AM CDT 9:34 PM CDT
Moon 1:54 PM CDT (4/19) 2:49 AM CDT (4/19)
Length of Visible Light 14h 13m
Length of Day
13h 18m
First Quarter, 62% of the Moon is Illuminated
Apr 19
First Quarter
Apr 25
Full
May 2
Last Quarter
May 9
New
May 17
First Quarter

Hourly Weather History & Observations

Time (CDT) Temp. Windchill Dew Point Humidity Pressure Visibility Wind Dir Wind Speed Gust Speed Precip Events Conditions
12:52 AM 39.0 °F 32.8 °F 28.0 °F 65% 30.05 in 10.0 mi West 9.2 mph - N/A   Scattered Clouds
1:52 AM 37.0 °F 29.8 °F 27.0 °F 67% 30.05 in 10.0 mi West 10.4 mph - N/A   Clear
2:52 AM 36.0 °F 28.5 °F 27.0 °F 70% 30.05 in 10.0 mi West 10.4 mph - N/A   Clear
3:52 AM 35.1 °F 27.9 °F 26.1 °F 70% 30.05 in 10.0 mi West 9.2 mph - N/A   Clear
4:52 AM 34.0 °F 26.0 °F 26.1 °F 73% 30.06 in 10.0 mi West 10.4 mph - N/A   Clear
5:52 AM 34.0 °F 25.5 °F 26.1 °F 73% 30.06 in 10.0 mi West 11.5 mph - N/A   Clear
6:52 AM 33.1 °F 25.5 °F 26.1 °F 75% 30.10 in 10.0 mi West 9.2 mph - N/A   Clear
7:52 AM 35.1 °F 26.4 °F 26.1 °F 70% 30.12 in 10.0 mi West 12.7 mph - N/A   Clear
8:52 AM 39.0 °F 30.6 °F 27.0 °F 62% 30.13 in 10.0 mi WNW 15.0 mph - N/A   Clear
9:52 AM 43.0 °F 35.7 °F 28.0 °F 56% 30.13 in 10.0 mi West 15.0 mph - N/A   Clear
10:52 AM 46.0 °F 39.6 °F 28.0 °F 50% 30.13 in 10.0 mi West 15.0 mph 20.7 mph N/A   Clear
11:52 AM 50.0 °F - 27.0 °F 41% 30.13 in 10.0 mi West 16.1 mph 23.0 mph N/A   Clear
12:52 PM 52.0 °F - 26.1 °F 37% 30.10 in 10.0 mi WNW 12.7 mph 19.6 mph N/A   Clear
1:52 PM 55.0 °F - 26.1 °F 33% 30.08 in 10.0 mi West 17.3 mph 20.7 mph N/A   Clear
2:52 PM 57.0 °F - 26.1 °F 30% 30.06 in 10.0 mi WSW 13.8 mph 18.4 mph N/A   Clear
3:52 PM 59.0 °F - 27.0 °F 29% 30.06 in 10.0 mi West 17.3 mph 24.2 mph N/A   Partly Cloudy
5:52 PM 62.1 °F - 30.9 °F 31% 30.02 in 10.0 mi WSW 10.4 mph - N/A   Mostly Cloudy
6:52 PM 62.1 °F - 30.9 °F 31% 30.02 in 10.0 mi WNW 9.2 mph - N/A   Partly Cloudy
7:52 PM 57.9 °F - 33.1 °F 39% 30.05 in 10.0 mi NNW 11.5 mph - N/A   Clear
8:52 PM 52.0 °F - 32.0 °F 47% 30.07 in 10.0 mi North 6.9 mph - N/A   Clear
9:52 PM 50.0 °F - 32.0 °F 50% 30.09 in 10.0 mi NE 3.5 mph - N/A   Clear
10:52 PM 50.0 °F - 30.9 °F 48% 30.09 in 10.0 mi ENE 4.6 mph - N/A   Clear
11:52 PM 43.0 °F - 34.0 °F 71% 30.10 in 10.0 mi Calm Calm - N/A   Clear